EA1HLH-13 Weather Reports


Display with metric or nautical units.
time (UTC)temp
F
wind
direction
speed
MPH
gust
MPH
rain 1hr
in
rain 24hr
in
rain mn
in
humidity
%
barometer
mb
20260508111128 60 143 2.0 6.0 0.00 0.00 0.00 76 1007.8
20260508110628 60 120 5.0 6.0 0.00 0.00 0.00 76 1007.9
20260508110128 60 123 5.0 8.0 0.00 0.00 0.00 77 1007.9
20260508105627 60 111 6.0 9.0 0.00 0.00 0.00 76 1008.0
20260508105128 60 172 1.0 2.0 0.00 0.00 0.00 78 1008.0
20260508104627 60 170 3.0 5.0 0.00 0.00 0.00 77 1008.0
20260508104127 60 145 6.0 9.0 0.00 0.00 0.00 78 1008.0
20260508103628 60 131 5.0 7.0 0.00 0.00 0.00 79 1008.0
20260508103129 60 184 5.0 3.0 0.00 0.00 0.00 79 1007.9
20260508102629 59 175 2.0 1.0 0.00 0.00 0.00 80 1008.1
20260508102129 59 194 2.0 3.0 0.00 0.00 0.00 81 1008.0
20260508101629 59 136 5.0 8.0 0.00 0.00 0.00 81 1008.0
20260508101129 58 157 3.0 6.0 0.00 0.00 0.00 82 1008.0
20260508100629 58 140 6.0 9.0 0.00 0.00 0.00 82 1007.9
20260508100129 58 138 2.0 6.0 0.00 0.00 0.00 84 1007.9
20260508095629 58 149 5.0 7.0 0.00 0.00 0.00 84 1008.0
20260508095129 58 162 2.0 3.0 0.00 0.00 0.00 85 1007.9
20260508094629 58 160 5.0 12.0 0.00 0.00 0.00 85 1008.0
20260508094129 58 126 5.0 6.0 0.00 0.00 0.00 85 1008.0
20260508093629 58 164 5.0 7.0 0.00 0.00 0.00 85 1007.8
20260508093129 58 128 2.0 6.0 0.00 0.00 0.00 84 1007.8
20260508092629 58 197 2.0 8.0 0.00 0.00 0.00 84 1007.7
20260508092129 58 184 2.0 6.0 0.00 0.00 0.00 85 1007.7
20260508091628 58 203 1.0 3.0 0.00 0.00 0.00 86 1007.7
20260508091128 58 107 1.0 2.0 0.00 0.00 0.00 87 1007.7
20260508090627 57 132 0.0 0.0 0.00 0.00 0.00 87 1007.6
20260508090129 57 100 3.0 3.0 0.00 0.00 0.00 86 1007.6
20260508085628 57 140 3.0 3.0 0.00 0.00 0.00 86 1007.6
20260508085129 57 172 2.0 3.0 0.00 0.00 0.00 88 1007.6
20260508084628 56 140 1.0 3.0 0.00 0.00 0.00 88 1007.7
20260508084128 56 273 0.0 2.0 0.00 0.00 0.00 89 1007.7
20260508083629 56 122 1.0 3.0 0.00 0.00 0.00 89 1007.9
20260508083128 55 125 0.0 2.0 0.00 0.00 0.00 89 1007.8
20260508082628 55 180 1.0 5.0 0.00 0.00 0.00 90 1007.8
20260508082129 55 153 2.0 3.0 0.00 0.00 0.00 90 1007.6
20260508081628 55 118 0.0 3.0 0.00 0.00 0.00 90 1007.7
20260508081129 55 129 2.0 3.0 0.00 0.00 0.00 91 1007.7
20260508080629 55 118 1.0 3.0 0.00 0.00 0.00 91 1007.7
20260508080128 54 147 2.0 7.0 0.00 0.00 0.00 91 1007.7
20260508075629 54 145 3.0 6.0 0.00 0.00 0.00 91 1007.8
20260508075129 54 134 3.0 3.0 0.00 0.00 0.00 90 1007.7
20260508074628 54 112 3.0 3.0 0.00 0.00 0.00 90 1007.8
20260508074129 54 140 0.0 2.0 0.00 0.00 0.00 90 1007.6
20260508073629 54 151 1.0 1.0 0.00 0.00 0.00 90 1007.6
20260508073129 54 160 2.0 3.0 0.00 0.00 0.00 90 1007.6
20260508072628 54 186 2.0 5.0 0.00 0.00 0.00 90 1007.6
20260508072128 54 146 1.0 5.0 0.00 0.00 0.00 90 1007.6
20260508071628 54 155 1.0 2.0 0.00 0.00 0.00 90 1007.6
20260508071128 54 148 2.0 6.0 0.00 0.00 0.00 90 1007.6
20260508070628 54 148 2.0 5.0 0.00 0.00 0.00 90 1007.6
20260508070128 54 144 1.0 3.0 0.00 0.00 0.00 90 1007.6
20260508065628 54 184 0.0 3.0 0.00 0.00 0.00 91 1007.5
20260508065128 53 166 1.0 3.0 0.00 0.00 0.00 91 1007.3
20260508064628 53 128 0.0 1.0 0.00 0.00 0.00 91 1007.4
20260508064129 53 138 0.0 0.0 0.00 0.00 0.00 91 1007.3
20260508063629 53 145 0.0 0.0 0.00 0.00 0.00 91 1007.2
20260508063129 53 244 0.0 0.0 0.00 0.00 0.00 91 1007.2
20260508062629 53 244 0.0 0.0 0.00 0.00 0.00 91 1007.1
20260508062129 53 244 0.0 0.0 0.00 0.00 0.00 91 1007.0
20260508061629 53 205 0.0 0.0 0.00 0.00 0.00 92 1006.9
20260508061129 53 143 0.0 0.0 0.00 0.00 0.00 92 1006.9
20260508060628 53 113 0.0 0.0 0.00 0.00 0.00 92 1006.8
20260508060128 53 113 0.0 0.0 0.00 0.00 0.00 92 1007.0
20260508055629 53 113 0.0 1.0 0.00 0.00 0.00 92 1006.8
20260508055128 53 113 0.0 0.0 0.00 0.00 0.00 91 1006.7
20260508054628 53 113 0.0 0.0 0.00 0.00 0.00 91 1006.6
20260508054128 53 127 0.0 1.0 0.00 0.00 0.00 91 1006.6
20260508053628 53 146 0.0 0.0 0.00 0.00 0.00 91 1006.5
20260508053128 53 130 0.0 1.0 0.00 0.00 0.00 91 1006.6
20260508052628 53 117 0.0 0.0 0.00 0.00 0.00 91 1006.6
20260508052128 53 217 1.0 2.0 0.00 0.00 0.00 91 1006.7
20260508051629 53 84 0.0 1.0 0.00 0.00 0.00 91 1006.7
20260508051128 53 106 1.0 3.0 0.00 0.00 0.00 91 1006.8
20260508050628 53 143 1.0 3.0 0.00 0.00 0.00 91 1006.9
20260508050129 53 167 1.0 3.0 0.00 0.00 0.00 91 1006.9
20260508045628 53 189 2.0 3.0 0.00 0.00 0.00 91 1006.9
20260508045128 53 176 2.0 6.0 0.00 0.00 0.00 91 1006.9
20260508044628 53 177 1.0 5.0 0.00 0.00 0.00 91 1007.0
20260508044128 53 172 2.0 5.0 0.00 0.00 0.00 91 1007.0
20260508043628 53 130 2.0 3.0 0.00 0.00 0.00 91 1007.0
20260508043128 53 124 2.0 3.0 0.00 0.00 0.00 91 1007.0
20260508042628 53 143 0.0 1.0 0.00 0.00 0.00 90 1007.0
20260508042128 53 265 0.0 1.0 0.00 0.00 0.00 90 1007.0
20260508041628 53 217 0.0 1.0 0.00 0.00 0.00 90 1006.9
20260508041128 53 240 0.0 0.0 0.00 0.00 0.00 90 1007.0
20260508040628 53 215 0.0 0.0 0.00 0.00 0.00 89 1006.9
20260508040128 53 193 0.0 0.0 0.00 0.00 0.00 89 1006.9
20260508035628 53 202 0.0 1.0 0.00 0.00 0.00 89 1007.0
20260508035128 53 71 0.0 0.0 0.00 0.00 0.00 89 1007.0
20260508034628 53 82 0.0 1.0 0.00 0.00 0.00 89 1007.0
20260508034129 53 209 0.0 0.0 0.00 0.00 0.00 89 1007.1
20260508033628 53 209 0.0 0.0 0.00 0.00 0.00 89 1007.1
20260508033128 54 175 0.0 0.0 0.00 0.00 0.00 89 1007.1
20260508032628 54 117 0.0 2.0 0.00 0.00 0.00 89 1007.0
20260508032128 54 119 1.0 3.0 0.00 0.00 0.00 89 1006.9
20260508031628 53 115 1.0 3.0 0.00 0.00 0.00 89 1007.0
20260508031128 54 149 1.0 3.0 0.00 0.00 0.00 89 1007.1
20260508030628 54 124 3.0 3.0 0.00 0.00 0.00 90 1007.1
20260508030128 53 108 1.0 3.0 0.00 0.00 0.00 90 1007.1
20260508025628 53 154 2.0 3.0 0.00 0.00 0.00 90 1007.0
20260508025128 53 151 1.0 3.0 0.00 0.00 0.00 91 1006.9
20260508024628 53 142 2.0 5.0 0.00 0.00 0.00 91 1007.0
20260508024128 53 135 3.0 5.0 0.00 0.00 0.00 91 1007.1
20260508023628 53 115 1.0 3.0 0.00 0.00 0.00 91 1007.1
20260508023128 53 142 1.0 3.0 0.00 0.00 0.00 92 1007.0
20260508022628 53 152 3.0 5.0 0.00 0.00 0.00 92 1007.0
20260508022128 53 167 0.0 3.0 0.00 0.00 0.00 93 1007.0
20260508021628 53 193 3.0 7.0 0.00 0.00 0.00 93 1007.1
20260508021128 53 132 0.0 2.0 0.00 0.00 0.00 94 1007.1
20260508020629 52 181 1.0 0.0 0.00 0.00 0.00 94 1007.3
20260508020128 52 127 1.0 3.0 0.00 0.00 0.00 94 1007.2
20260508015629 52 122 0.0 3.0 0.00 0.00 0.00 94 1007.2
20260508015129 52 92 1.0 1.0 0.00 0.00 0.00 95 1007.3
20260508014629 52 172 0.0 3.0 0.00 0.00 0.00 95 1007.3
20260508014129 52 220 0.0 2.0 0.00 0.00 0.00 96 1007.3
20260508013629 52 99 0.0 0.0 0.00 0.00 0.00 96 1007.4
20260508013129 51 127 0.0 1.0 0.00 0.00 0.00 96 1007.7
20260508012629 51 112 0.0 1.0 0.00 0.00 0.00 97 1007.8
20260508012129 51 149 0.0 3.0 0.00 0.00 0.00 97 1007.8
20260508011629 51 129 0.0 1.0 0.00 0.00 0.00 97 1007.9
20260508011129 51 113 0.0 0.0 0.00 0.00 0.00 98 1007.9
20260508010629 51 140 0.0 0.0 0.00 0.00 0.00 98 1008.1
20260508010129 50 105 0.0 0.0 0.00 0.00 0.00 98 1008.0
20260508005629 50 151 0.0 1.0 0.00 0.00 0.00 98 1008.1
20260508005129 50 169 1.0 5.0 0.00 0.00 0.00 98 1008.2
20260508004628 50 169 0.0 0.0 0.00 0.00 0.00 98 1008.1
20260508004129 50 129 0.0 0.0 0.00 0.00 0.00 98 1008.2
20260508003628 50 158 0.0 0.0 0.00 0.00 0.00 98 1008.2
20260508003128 50 158 0.0 0.0 0.00 0.00 0.00 98 1008.2
20260508002629 50 158 0.0 0.0 0.00 0.00 0.00 98 1008.2
20260508002129 50 158 0.0 0.0 0.00 0.00 0.00 98 1008.3
20260508001629 50 158 0.0 0.0 0.00 0.00 0.00 98 1008.3
20260508001129 50 145 0.0 0.0 0.00 0.00 0.00 98 1008.3
20260508000629 50 140 0.0 0.0 0.00 0.00 0.00 98 1008.3
20260508000129 50 134 0.0 0.0 0.00 0.00 0.00 98 1008.2
20260507235629 49 206 0.0 0.0 0.00 0.00 0.00 98 1008.3
20260507235129 49 185 0.0 0.0 0.00 0.00 0.00 98 1008.3
20260507234629 49 184 0.0 0.0 0.00 0.00 0.00 97 1008.4
20260507234129 49 184 0.0 0.0 0.00 0.00 0.00 98 1008.3
20260507233629 49 184 0.0 0.0 0.00 0.00 0.00 98 1008.5
20260507233129 49 107 0.0 0.0 0.00 0.00 0.00 97 1008.5
20260507232629 49 107 0.0 0.0 0.00 0.00 0.00 97 1008.6
20260507232129 49 107 0.0 0.0 0.00 0.00 0.00 97 1008.6
20260507231629 49 107 0.0 0.0 0.00 0.00 0.00 97 1008.6
20260507231129 49 107 0.0 0.0 0.00 0.00 0.00 97 1008.6
20260507230629 50 107 0.0 0.0 0.00 0.00 0.00 97 1008.6
20260507230129 50 109 0.0 0.0 0.00 0.00 0.00 97 1008.6
20260507225628 50 112 0.0 1.0 0.00 0.00 0.00 97 1008.6
20260507225128 50 117 0.0 0.0 0.00 0.00 0.00 97 1008.7
20260507224628 50 117 0.0 0.0 0.00 0.00 0.00 97 1008.8
20260507224128 50 117 0.0 0.0 0.00 0.00 0.00 97 1008.8
20260507223628 51 117 0.0 0.0 0.00 0.00 0.00 97 1008.8
20260507223128 51 117 1.0 1.0 0.00 0.00 0.00 97 1008.8
20260507222628 51 131 0.0 0.0 0.00 0.00 0.00 97 1008.9
20260507222128 51 131 0.0 0.0 0.00 0.00 0.00 97 1008.9
20260507221628 51 131 0.0 0.0 0.00 0.00 0.00 97 1009.0
20260507221128 51 131 0.0 0.0 0.00 0.00 0.00 96 1009.1
20260507220628 51 127 0.0 0.0 0.00 0.00 0.00 96 1009.3
20260507220128 51 127 0.0 0.0 0.00 0.00 0.00 96 1009.3
20260507215628 51 127 0.0 1.0 0.00 0.00 0.00 96 1009.3
20260507215128 51 165 0.0 1.0 0.00 0.00 0.00 96 1009.4
20260507214628 52 277 0.0 1.0 0.00 0.00 0.00 96 1009.3
20260507214128 52 277 0.0 0.0 0.00 0.00 0.00 96 1009.3
20260507213628 52 277 0.0 0.0 0.00 0.00 0.00 96 1009.3
20260507213128 52 277 0.0 0.0 0.00 0.00 0.00 96 1009.3
20260507212629 52 277 0.0 0.0 0.00 0.00 0.00 96 1009.3
20260507212129 52 277 0.0 0.0 0.00 0.00 0.00 96 1009.3
20260507211629 52 277 0.0 0.0 0.00 0.00 0.00 96 1009.2
20260507211129 52 277 0.0 0.0 0.00 0.00 0.00 95 1009.1
20260507210629 53 277 0.0 0.0 0.00 0.00 0.00 95 1009.2
20260507210331 53 277 0.0 0.0 0.00 0.00 0.00 95 1009.1
20260507205831 53 277 0.0 0.0 0.00 0.00 0.00 95 1008.9
20260507205331 53 277 0.0 0.0 0.00 0.00 0.00 95 1009.1
20260507204831 53 277 0.0 0.0 0.00 0.00 0.00 95 1008.9
20260507204331 53 277 0.0 0.0 0.00 0.00 0.00 94 1008.7
20260507203831 54 277 0.0 0.0 0.00 0.00 0.00 94 1008.8
20260507203331 54 277 0.0 0.0 0.00 0.00 0.00 94 1008.7
20260507202831 54 277 0.0 0.0 0.00 0.00 0.00 94 1008.7
20260507202331 54 277 0.0 0.0 0.00 0.00 0.00 94 1008.7
20260507201831 54 277 0.0 0.0 0.00 0.00 0.00 94 1008.7
20260507201331 55 277 0.0 0.0 0.00 0.00 0.00 94 1008.7
20260507200831 55 277 0.0 0.0 0.00 0.00 0.00 94 1008.6
20260507200330 55 277 0.0 0.0 0.00 0.00 0.00 93 1008.7
20260507195830 55 277 0.0 0.0 0.00 0.00 0.00 93 1008.7
20260507195330 55 277 0.0 0.0 0.00 0.00 0.00 93 1008.7
20260507194830 55 277 0.0 0.0 0.00 0.00 0.00 93 1008.7
20260507194331 56 277 0.0 0.0 0.00 0.00 0.00 93 1008.6
20260507193831 56 277 0.0 0.0 0.00 0.00 0.00 92 1008.7
20260507193331 56 277 0.0 0.0 0.00 0.00 0.00 92 1008.6
20260507192831 56 277 0.0 0.0 0.00 0.00 0.00 92 1008.5
20260507192331 56 277 0.0 0.0 0.00 0.00 0.00 92 1008.5
20260507191831 57 282 1.0 2.0 0.00 0.00 0.00 92 1008.4
20260507191331 57 280 2.0 2.0 0.00 0.00 0.00 92 1008.6
20260507190831 57 266 1.0 1.0 0.00 0.00 0.00 91 1008.6
20260507190331 57 262 1.0 1.0 0.00 0.00 0.00 91 1008.6
20260507185831 57 257 0.0 1.0 0.00 0.00 0.00 91 1008.6
20260507185331 57 271 1.0 1.0 0.00 0.00 0.00 91 1008.6
20260507184831 57 279 0.0 0.0 0.00 0.00 0.00 91 1008.6
20260507184331 57 289 0.0 1.0 0.00 0.00 0.00 91 1008.4
20260507183831 57 278 0.0 1.0 0.00 0.00 0.00 91 1008.4
20260507183331 57 265 0.0 2.0 0.00 0.00 0.00 91 1008.5
20260507182831 57 274 1.0 1.0 0.00 0.00 0.00 90 1008.5
20260507182331 58 282 3.0 5.0 0.00 0.00 0.00 89 1008.4
20260507181831 58 279 5.0 6.0 0.00 0.00 0.00 89 1008.4
20260507181330 58 279 3.0 7.0 0.00 0.00 0.00 86 1008.4
20260507180831 59 284 3.0 6.0 0.00 0.00 0.00 87 1008.4
20260507180331 59 289 3.0 6.0 0.00 0.00 0.00 86 1008.5
20260507175831 60 286 3.0 6.0 0.00 0.00 0.00 86 1008.5
20260507175331 60 285 3.0 6.0 0.00 0.00 0.00 87 1008.4
20260507174831 60 260 3.0 3.0 0.00 0.00 0.00 87 1008.5
20260507174331 59 283 2.0 3.0 0.00 0.00 0.00 87 1008.4
20260507173831 59 278 3.0 5.0 0.00 0.00 0.00 88 1008.4
20260507173331 59 288 1.0 6.0 0.00 0.00 0.00 89 1008.5
20260507172831 58 339 1.0 2.0 0.00 0.00 0.00 89 1008.5
20260507172331 58 346 0.0 1.0 0.00 0.00 0.00 90 1008.5
20260507171831 57 66 1.0 2.0 0.00 0.00 0.00 89 1008.7
20260507171331 57 317 2.0 1.0 0.00 0.00 0.00 89 1008.6
20260507170831 57 354 1.0 3.0 0.00 0.00 0.00 90 1008.6
20260507170331 58 37 2.0 3.0 0.00 0.00 0.00 89 1008.7
20260507165831 58 39 2.0 3.0 0.00 0.00 0.00 89 1008.6
20260507165331 58 0 2.0 3.0 0.00 0.00 0.00 89 1008.5
20260507164831 58 317 2.0 3.0 0.00 0.00 0.00 88 1008.5
20260507164331 58 17 3.0 6.0 0.00 0.00 0.00 87 1008.6
20260507163831 58 20 3.0 6.0 0.00 0.00 0.00 86 1008.8
20260507163330 59 40 3.0 5.0 0.00 0.00 0.00 86 1008.7
20260507162830 59 349 2.0 6.0 0.00 0.00 0.00 86 1008.5
20260507162330 59 12 2.0 6.0 0.00 0.00 0.00 85 1008.7
20260507161830 59 4 2.0 3.0 0.00 0.00 0.00 84 1008.8
20260507161330 59 25 2.0 3.0 0.00 0.00 0.00 84 1008.8
20260507160830 59 7 3.0 5.0 0.00 0.00 0.00 83 1008.7
20260507160330 59 61 3.0 3.0 0.00 0.00 0.00 83 1008.7
20260507155830 59 3 2.0 3.0 0.00 0.00 0.00 83 1008.8
20260507155330 59 349 2.0 3.0 0.00 0.00 0.00 83 1008.8
20260507154832 59 48 2.0 3.0 0.00 0.00 0.00 83 1008.7
20260507154333 59 67 3.0 7.0 0.00 0.00 0.00 83 1008.7
20260507153905 60 38 1.0 6.0 0.00 0.00 0.00 84 1008.8
20260507153832 60 38 1.0 6.0 0.00 0.00 0.00 84 1008.8
20260507153332 59 77 1.0 3.0 0.00 0.00 0.00 85 1008.8
20260507153115 59 12 2.0 5.0 0.00 0.00 0.00 84 1008.8
20260507152854 58 351 5.0 8.0 0.00 0.00 0.00 84 1008.7
20260507152831 59 12 2.0 5.0 0.00 0.00 0.00 84 1008.8
20260507152331 58 351 5.0 8.0 0.00 0.00 0.00 84 1008.7
20260507152309 58 39 7.0 7.0 0.00 0.00 0.00 84 1008.7
20260507151832 58 39 7.0 7.0 0.00 0.00 0.00 84 1008.7
20260507151331 58 52 3.0 5.0 0.00 0.00 0.00 85 1008.7
20260507150830 59 329 6.0 8.0 0.00 0.00 0.00 85 1008.7
20260507150330 59 356 5.0 8.0 0.00 0.00 0.00 86 1008.8
20260507145830 59 355 5.0 6.0 0.00 0.00 0.00 87 1008.8
20260507145330 59 27 5.0 7.0 0.00 0.00 0.00 85 1008.9
20260507144830 59 31 5.0 6.0 0.00 0.00 0.00 85 1009.0
20260507144330 59 10 5.0 8.0 0.00 0.00 0.00 86 1009.2
20260507143830 58 353 3.0 5.0 0.00 0.00 0.00 86 1009.3
20260507143330 58 0 3.0 6.0 0.00 0.00 0.00 87 1009.5
20260507142830 58 330 2.0 5.0 0.00 0.00 0.00 87 1009.4
20260507142330 58 15 6.0 9.0 0.00 0.00 0.00 86 1009.5
20260507141830 59 4 6.0 8.0 0.00 0.00 0.00 85 1009.6
20260507141330 59 57 6.0 10.0 0.00 0.00 0.00 84 1009.7
20260507140831 59 343 5.0 7.0 0.00 0.00 0.00 86 1009.7
20260507140330 59 14 3.0 8.0 0.00 0.00 0.00 86 1009.5
20260507135830 59 21 5.0 10.0 0.00 0.00 0.00 87 1009.5
20260507135330 59 34 8.0 12.0 0.00 0.00 0.00 86 1009.4
20260507134830 59 357 3.0 7.0 0.00 0.00 0.00 86 1009.4
20260507134330 59 15 3.0 10.0 0.00 0.00 0.00 85 1009.4
20260507133830 60 0 5.0 9.0 0.00 0.00 0.00 86 1009.2
20260507133330 60 22 5.0 10.0 0.00 0.00 0.00 85 1009.3
20260507132831 60 355 3.0 7.0 0.00 0.00 0.00 85 1009.2
20260507132331 59 36 5.0 7.0 0.00 0.00 0.00 86 1009.3
20260507131831 59 29 3.0 9.0 0.00 0.00 0.00 86 1009.3
20260507131331 59 23 3.0 7.0 0.00 0.00 0.00 84 1009.4
20260507130831 60 28 3.0 7.0 0.00 0.00 0.00 85 1009.3
20260507130331 60 23 3.0 5.0 0.00 0.00 0.00 85 1009.4
20260507125831 60 19 5.0 6.0 0.00 0.00 0.00 85 1009.4
20260507125331 59 336 3.0 7.0 0.00 0.00 0.00 85 1009.5
20260507124831 59 3 5.0 9.0 0.00 0.00 0.00 85 1009.6
20260507124331 59 287 3.0 10.0 0.00 0.00 0.00 86 1009.7
20260507123831 59 310 5.0 8.0 0.00 0.00 0.00 86 1009.8
20260507123331 59 332 2.0 3.0 0.00 0.00 0.00 87 1010.0
20260507122831 59 320 3.0 3.0 0.00 0.00 0.00 86 1010.1
20260507122331 59 349 3.0 8.0 0.00 0.00 0.00 86 1010.2
20260507121831 59 333 5.0 7.0 0.00 0.00 0.00 85 1010.2
20260507121331 59 295 3.0 5.0 0.00 0.00 0.00 86 1010.2
20260507120831 59 357 2.0 3.0 0.00 0.00 0.00 85 1010.3
20260507120331 59 9 3.0 6.0 0.00 0.00 0.00 85 1010.2
20260507115831 58 8 3.0 3.0 0.00 0.00 0.00 84 1010.3
20260507115331 58 326 5.0 6.0 0.00 0.00 0.00 84 1010.2
20260507114831 58 347 3.0 5.0 0.00 0.00 0.00 84 1010.4
20260507114330 58 5 5.0 8.0 0.00 0.00 0.00 85 1010.4
20260507113830 58 333 5.0 8.0 0.00 0.00 0.00 85 1010.4
20260507113331 58 293 5.0 12.0 0.00 0.00 0.00 86 1010.4
20260507112831 58 311 5.0 7.0 0.00 0.00 0.00 86 1010.3
20260507112331 58 296 8.0 12.0 0.00 0.00 0.00 85 1010.2
20260507111833 58 295 7.0 10.0 0.00 0.00 0.00 85 1010.2